Aureole 3 Rocket - Orbit

View from above orbital plane
View from above orbital plane
View from above satellite
View from above satellite

Ground track
Ground track

The orbit data is extracted from the following two-line orbital elements,

1 12849U 81094B   13141.78104984  .00001566  00000-0  14382-3 0  6061
2 12849 082.4954 225.7492 0918233 086.2913 284.2610 13.46872192541415
Epoch (UTC): 21 May 2013 18:44:42
Eccentricity: 0.0918233
inclination: 82.4954°
perigee height: 398 km
apogee height: 1769 km
right ascension of ascending node: 225.7492°
argument of perigee: 86.2913°
revolutions per day: 13.46872192
mean anomaly at epoch: 284.2610°
orbit number at epoch: 54141

The dashed part of the orbit path shows where the satellite is in the earth's shadow,  

Developed and maintained by Chris Peat, Heavens-Above GmbH. Please read the updated FAQ before sending e-mail. Imprint. DLR